• In Schweiz
  • Länderverzeichnis
  • Für 7 Tage
  • Wassertemperatur
  • Satellitenkarten
  • Wetterkarte
  • Widgets
  • user-avatar
    Anmelden

    Stündliche Wetter Nasirijja

    Heute, 16 Oktober, Dienstag

    Zeit Temperatur Niederschläge Wind Luftdruck Luftfeuchtigkeit
    00:00 +35°C° 0 mm 3 m/S 758 mmHg 16%
    01:00 +34°C° 0 mm 3 m/S 758 mmHg 17%
    02:00 +33°C° 0 mm 3 m/S 758 mmHg 18%
    03:00 +33°C° 0 mm 3 m/S 758 mmHg 19%
    04:00 +31°C° 0 mm 3 m/S 758 mmHg 20%
    05:00 +31°C° 0 mm 3 m/S 758 mmHg 20%
    06:00 +30°C° 0 mm 2 m/S 758 mmHg 20%
    07:00 +32°C° 0 mm 2 m/S 758 mmHg 19%
    08:00 +34°C° 0 mm 2 m/S 758 mmHg 17%
    09:00 +36°C° 0 mm 2 m/S 759 mmHg 15%
    10:00 +38°C° 0 mm 2 m/S 758 mmHg 14%
    11:00 +39°C° 0 mm 2 m/S 758 mmHg 12%
    12:00 +41°C° 0 mm 2 m/S 758 mmHg 11%
    13:00 +41°C° 0 mm 1 m/S 758 mmHg 10%
    14:00 +41°C° 0 mm 1 m/S 757 mmHg 10%
    15:00 +39°C° 0 mm 0 m/S 757 mmHg 9%
    16:00 +41°C° 0 mm 1 m/S 757 mmHg 10%
    17:00 +39°C° 0 mm 1 m/S 757 mmHg 10%
    18:00 +37°C° 0 mm 1 m/S 757 mmHg 11%
    19:00 +37°C° 0 mm 1 m/S 757 mmHg 12%
    20:00 +37°C° 0 mm 2 m/S 757 mmHg 12%
    21:00 +37°C° 0 mm 2 m/S 757 mmHg 12%
    22:00 +36°C° 0 mm 2 m/S 757 mmHg 13%
    23:00 +36°C° 0 mm 2 m/S 757 mmHg 14%

    Morgen, 17 Oktober, Mittwoch

    Zeit Temperatur Niederschläge Wind Luftdruck Luftfeuchtigkeit
    00:00 +35°C° 0 mm 2 m/S 757 mmHg 14%
    01:00 +34°C° 0 mm 2 m/S 757 mmHg 16%
    02:00 +34°C° 0 mm 2 m/S 757 mmHg 17%
    03:00 +32°C° 0 mm 2 m/S 756 mmHg 18%
    04:00 +31°C° 0 mm 2 m/S 757 mmHg 19%
    05:00 +31°C° 0 mm 2 m/S 757 mmHg 20%
    06:00 +30°C° 0 mm 2 m/S 757 mmHg 20%
    07:00 +32°C° 0 mm 2 m/S 757 mmHg 18%
    08:00 +35°C° 0 mm 2 m/S 757 mmHg 16%
    09:00 +37°C° 0 mm 2 m/S 758 mmHg 14%
    10:00 +38°C° 0 mm 2 m/S 758 mmHg 13%
    11:00 +39°C° 0 mm 1 m/S 757 mmHg 12%
    12:00 +40°C° 0 mm 1 m/S 757 mmHg 11%
    13:00 +41°C° 0 mm 1 m/S 756 mmHg 11%
    14:00 +41°C° 0 mm 1 m/S 756 mmHg 10%
    15:00 +41°C° 0 mm 1 m/S 755 mmHg 10%
    16:00 +40°C° 0 mm 1 m/S 755 mmHg 10%
    17:00 +39°C° 0 mm 1 m/S 755 mmHg 11%
    18:00 +38°C° 0 mm 2 m/S 755 mmHg 12%
    19:00 +38°C° 0 mm 2 m/S 756 mmHg 12%
    20:00 +37°C° 0 mm 3 m/S 756 mmHg 13%
    21:00 +37°C° 0 mm 3 m/S 757 mmHg 13%
    22:00 +36°C° 0 mm 3 m/S 756 mmHg 14%
    23:00 +36°C° 0 mm 4 m/S 756 mmHg 15%

    übermorgen, 18 Oktober, Donnerstag

    Zeit Temperatur Niederschläge Wind Luftdruck Luftfeuchtigkeit
    00:00 +35°C° 0 mm 4 m/S 756 mmHg 17%
    01:00 +34°C° 0 mm 4 m/S 756 mmHg 19%
    02:00 +34°C° 0 mm 3 m/S 756 mmHg 22%
    03:00 +33°C° 0 mm 3 m/S 756 mmHg 25%
    04:00 +31°C° 0 mm 3 m/S 756 mmHg 25%
    05:00 +31°C° 0 mm 3 m/S 757 mmHg 26%
    06:00 +30°C° 0 mm 2 m/S 757 mmHg 27%
    07:00 +32°C° 0 mm 2 m/S 757 mmHg 24%
    08:00 +35°C° 0 mm 3 m/S 758 mmHg 21%
    09:00 +36°C° 0 mm 3 m/S 758 mmHg 18%
    10:00 +37°C° 0 mm 2 m/S 758 mmHg 16%
    11:00 +39°C° 0 mm 1 m/S 757 mmHg 15%
    12:00 +40°C° 0 mm 1 m/S 757 mmHg 13%
    13:00 +40°C° 0 mm 1 m/S 757 mmHg 13%
    14:00 +41°C° 0 mm 1 m/S 756 mmHg 12%
    15:00 +41°C° 0 mm 1 m/S 756 mmHg 11%
    16:00 +40°C° 0 mm 1 m/S 756 mmHg 12%
    17:00 +39°C° 0 mm 2 m/S 756 mmHg 13%
    18:00 +39°C° 0 mm 2 m/S 756 mmHg 13%
    19:00 +38°C° 0 mm 2 m/S 756 mmHg 14%
    20:00 +37°C° 0 mm 3 m/S 756 mmHg 15%
    21:00 +37°C° 0 mm 3 m/S 757 mmHg 16%
    22:00 +36°C° 0 mm 3 m/S 757 mmHg 18%
    23:00 +35°C° 0 mm 3 m/S 757 mmHg 20%

    19 Oktober, Freitag

    Zeit Temperatur Niederschläge Wind Luftdruck Luftfeuchtigkeit
    00:00 +34°C° 0 mm 3 m/S 757 mmHg 22%
    01:00 +34°C° 0 mm 3 m/S 757 mmHg 25%
    02:00 +33°C° 0 mm 3 m/S 757 mmHg 27%
    03:00 +31°C° 0 mm 3 m/S 757 mmHg 30%
    04:00 +31°C° 0 mm 2 m/S 757 mmHg 31%
    05:00 +30°C° 0 mm 2 m/S 757 mmHg 31%
    06:00 +30°C° 0 mm 2 m/S 758 mmHg 32%
    07:00 +32°C° 0 mm 2 m/S 758 mmHg 29%
    08:00 +34°C° 0 mm 2 m/S 758 mmHg 25%
    09:00 +36°C° 0 mm 2 m/S 759 mmHg 22%
    10:00 +37°C° 0 mm 2 m/S 758 mmHg 19%
    11:00 +39°C° 0 mm 2 m/S 758 mmHg 17%
    12:00 +40°C° 0 mm 2 m/S 758 mmHg 14%
    13:00 +40°C° 0 mm 2 m/S 757 mmHg 13%
    14:00 +41°C° 0 mm 2 m/S 757 mmHg 12%
    15:00 +41°C° 0 mm 2 m/S 756 mmHg 11%
    16:00 +40°C° 0 mm 2 m/S 756 mmHg 12%
    17:00 +39°C° 0 mm 1 m/S 757 mmHg 12%
    18:00 +37°C° 0 mm 1 m/S 757 mmHg 13%
    19:00 +36°C° 0 mm 1 m/S 757 mmHg 14%
    20:00 +36°C° 0 mm 2 m/S 757 mmHg 15%
    21:00 +36°C° 0 mm 2 m/S 758 mmHg 15%
    22:00 +35°C° 0 mm 2 m/S 757 mmHg 16%
    23:00 +35°C° 0 mm 2 m/S 757 mmHg 17%

    20 Oktober, Samstag

    Zeit Temperatur Niederschläge Wind Luftdruck Luftfeuchtigkeit
    00:00 +34°C° 0 mm 2 m/S 757 mmHg 18%
    01:00 +34°C° 0 mm 3 m/S 757 mmHg 19%
    02:00 +33°C° 0 mm 3 m/S 757 mmHg 19%
    03:00 +33°C° 0 mm 3 m/S 757 mmHg 20%
    04:00 +31°C° 0 mm 3 m/S 757 mmHg 22%
    05:00 +30°C° 0 mm 2 m/S 758 mmHg 23%
    06:00 +30°C° 0 mm 2 m/S 758 mmHg 24%
    07:00 +32°C° 0 mm 2 m/S 758 mmHg 21%
    08:00 +34°C° 0 mm 2 m/S 759 mmHg 19%
    09:00 +36°C° 0 mm 2 m/S 759 mmHg 17%
    10:00 +37°C° 0 mm 2 m/S 759 mmHg 16%
    11:00 +39°C° 0 mm 2 m/S 759 mmHg 14%
    12:00 +40°C° 0 mm 1 m/S 758 mmHg 13%
    13:00 +40°C° 0 mm 1 m/S 758 mmHg 12%
    14:00 +40°C° 0 mm 1 m/S 757 mmHg 12%
    15:00 +38°C° 0 mm 0 m/S 757 mmHg 11%
    16:00 +40°C° 0 mm 1 m/S 757 mmHg 12%
    17:00 +39°C° 0 mm 1 m/S 757 mmHg 13%
    18:00 +36°C° 0 mm 1 m/S 757 mmHg 13%
    19:00 +37°C° 0 mm 2 m/S 757 mmHg 14%
    20:00 +37°C° 0 mm 2 m/S 758 mmHg 14%
    21:00 +36°C° 0 mm 3 m/S 758 mmHg 15%
    22:00 +36°C° 0 mm 3 m/S 758 mmHg 18%
    23:00 +35°C° 0 mm 4 m/S 757 mmHg 21%

    21 Oktober, Sonntag

    Zeit Temperatur Niederschläge Wind Luftdruck Luftfeuchtigkeit
    00:00 +34°C° 0 mm 4 m/S 757 mmHg 25%
    01:00 +33°C° 0 mm 4 m/S 757 mmHg 28%
    02:00 +33°C° 0 mm 4 m/S 757 mmHg 31%
    03:00 +32°C° 0 mm 4 m/S 757 mmHg 34%
    04:00 +32°C° 0 mm 4 m/S 758 mmHg 34%
    05:00 +30°C° 0 mm 4 m/S 758 mmHg 34%
    06:00 +30°C° 0 mm 4 m/S 758 mmHg 34%
    07:00 +32°C° 0 mm 4 m/S 759 mmHg 30%
    08:00 +34°C° 0 mm 5 m/S 759 mmHg 26%
    09:00 +36°C° 0 mm 5 m/S 759 mmHg 22%
    10:00 +37°C° 0 mm 4 m/S 759 mmHg 20%
    11:00 +38°C° 0 mm 4 m/S 759 mmHg 18%
    12:00 +40°C° 0 mm 3 m/S 758 mmHg 16%
    13:00 +40°C° 0 mm 3 m/S 758 mmHg 15%
    14:00 +40°C° 0 mm 3 m/S 758 mmHg 15%
    15:00 +40°C° 0 mm 3 m/S 757 mmHg 14%
    16:00 +40°C° 0 mm 3 m/S 757 mmHg 15%
    17:00 +39°C° 0 mm 3 m/S 757 mmHg 15%
    18:00 +38°C° 0 mm 3 m/S 757 mmHg 16%
    19:00 +37°C° 0 mm 4 m/S 758 mmHg 19%
    20:00 +36°C° 0 mm 5 m/S 758 mmHg 21%
    21:00 +36°C° 0 mm 6 m/S 758 mmHg 24%
    22:00 +35°C° 0 mm 6 m/S 758 mmHg 29%
    23:00 +34°C° 0 mm 7 m/S 758 mmHg 34%
    Mehr zeigen